SBBU Informação do Aeroporto

Informação da Pista
Runway 14 Length 4925 ft width 115 ft
Elevation 0 ft Threshold 0 ft Heading 0
Runway 32 Length 4925 ft Width 115 ft
Elevation 0 ft Threshold 0 ft Heading 0
Frequencias do Aeroporto
Tipo AFIS Nome RDO Frequência 121.3 MHZ
Tipo APP Nome APP Frequência 121.3 MHZ
Tipo ATIS Nome ATIS Frequência 127.875 MHZ
Navaids Aeroporto
Tipo NDB Name Bauru Frequência 380 KHZ
Tempo do Aeroporto & NOTAM
ADDS - METARS form results

(1804 UTC 01 June 2020)
Data provider http://aviationweather.gov/metar/data/
 
Forecast for: SBBU (BAURU , BR)
Text: TAF SBBU 010900Z 0112/0124 05007KT CAVOK TX28/0118Z TN23/0123Z RMK PAZ
Forecast period: 1200 UTC 01 June 2020 to 0000 UTC 02 June 2020
Forecast type: FROM: standard forecast or significant change
Winds: from the NE (50 degrees) at 8 MPH (7 knots; 3.6 m/s)
Visibility: 6 or more miles 10+ km)
Ceiling: unknown
Clouds: missing
Weather: no significant weather forecast for this period